York, NE

3:51 PM CST on February 07, 2016 (GMT -0600)
York Municipal

Weather History for KJYR - January, 2013

Change the Weather History Date:

Thursday, January 10, 2013

  Actual Average Record
Temperature  
Mean Temperature 30 °F -  
Max Temperature 35 °F 28 °F 60 °F (2012)
Min Temperature 26 °F 9 °F -20 °F (1982)
Degree Days  
Heating Degree Days 34    
Moisture  
Dew Point 31 °F    
Average Humidity 93    
Maximum Humidity 100    
Minimum Humidity 70    
Precipitation  
Precipitation 0.08 in - - ()
Sea Level Pressure  
Sea Level Pressure 29.93 in    
Wind  
Wind Speed 4 mph (SSE)    
Max Wind Speed 15 mph    
Max Gust Speed -    
Visibility 5 miles    
Events Fog , Rain    
Averages and records for this station are not official NWS values.
T = Trace of Precipitation, MM = Missing Value Source: NWS Daily Summary

Daily Weather History Graph

Daily Weather History Graph

Search for Another Location

Airport or City:

Trip Planner

Search our weather history database for the weather conditions in past years. The results will help you decide how hot, cold, wet, or windy it might be!

Date:

Astronomy

Jan. 10, 2013 Rise Set
Actual Time 7:54 AM CST 5:22 PM CST
Civil Twilight 7:23 AM CST 5:52 PM CST
Nautical Twilight 6:49 AM CST 6:26 PM CST
Astronomical Twilight 6:16 AM CST 6:59 PM CST
Moon 6:35 AM CST (1/10) 4:31 PM CST (1/10)
Length of Visible Light 10h 28m
Length of Day
9h 27m
Waning Crescent, 2% of the Moon is Illuminated
Jan 10
Waning Crescent
Jan 11
New
Jan 18
First Quarter
Jan 26
Full
Feb 3
Last Quarter

Hourly Weather History & Observations

Time (CST) Temp. Windchill Dew Point Humidity Pressure Visibility Wind Dir Wind Speed Gust Speed Precip Events Conditions
12:15 AM 28.4 °F - 24.8 °F 86% 30.29 in 10.0 mi Calm Calm - N/A   Clear
12:35 AM 28.4 °F 23.3 °F 24.8 °F 86% 30.29 in 10.0 mi South 4.6 mph - N/A   Clear
12:55 AM 26.6 °F - 24.8 °F 93% 30.28 in 10.0 mi Calm Calm - N/A   Clear
2:15 AM 26.6 °F - 24.8 °F 93% 30.25 in 10.0 mi Calm Calm - N/A   Clear
2:35 AM 26.6 °F - 24.8 °F 93% 30.25 in 10.0 mi Calm Calm - N/A   Clear
2:55 AM 26.6 °F - 24.8 °F 93% 30.24 in 10.0 mi Calm Calm - N/A   Clear
3:15 AM 26.6 °F - 24.8 °F 93% 30.24 in 10.0 mi Calm Calm - N/A   Clear
3:35 AM 28.4 °F - 26.6 °F 93% 30.23 in 10.0 mi Calm Calm - N/A   Clear
3:55 AM 28.4 °F 22.2 °F 26.6 °F 93% 30.21 in 10.0 mi South 5.8 mph - N/A   Clear
4:15 AM 32.0 °F - 28.4 °F 87% 30.21 in 10.0 mi Calm Calm - N/A   Clear
4:35 AM 32.0 °F - 28.4 °F 87% 30.19 in 10.0 mi Calm Calm - N/A   Clear
4:55 AM 30.2 °F - 26.6 °F 86% 30.17 in 10.0 mi Calm Calm - N/A   Clear
5:15 AM 32.0 °F - 26.6 °F 80% 30.16 in 10.0 mi Calm Calm - N/A   Clear
5:35 AM 32.0 °F - 26.6 °F 80% 30.14 in 10.0 mi Calm Calm - N/A   Partly Cloudy
5:55 AM 32.0 °F - 26.6 °F 80% 30.13 in 10.0 mi Calm Calm - N/A   Clear
6:15 AM 32.0 °F - 26.6 °F 80% 30.12 in 10.0 mi Calm Calm - N/A   Clear
6:35 AM 32.0 °F - 26.6 °F 80% 30.11 in 10.0 mi Calm Calm - N/A   Scattered Clouds
6:55 AM 32.0 °F 28.7 °F 26.6 °F 80% 30.10 in 10.0 mi SE 3.5 mph - N/A   Scattered Clouds
7:35 AM 33.8 °F - 26.6 °F 75% 30.08 in 10.0 mi Calm Calm - N/A   Partly Cloudy
8:15 AM 35.6 °F 27.1 °F 26.6 °F 70% 30.07 in 10.0 mi SE 12.7 mph - N/A   Overcast
8:35 AM 35.6 °F 28.0 °F 26.6 °F 70% 30.06 in 10.0 mi SE 10.4 mph - N/A   Overcast
8:55 AM 35.6 °F 28.0 °F 26.6 °F 70% 30.04 in 10.0 mi SE 10.4 mph - N/A   Overcast
9:15 AM 35.6 °F 28.0 °F 28.4 °F 75% 30.03 in 10.0 mi SE 10.4 mph - N/A   Overcast
9:35 AM 35.6 °F 26.6 °F 28.4 °F 75% 30.02 in 10.0 mi SE 13.8 mph - N/A   Overcast
9:55 AM 35.6 °F 27.1 °F 28.4 °F 75% 30.01 in 10.0 mi SE 12.7 mph - N/A   Overcast
10:15 AM 35.6 °F 26.2 °F 30.2 °F 81% 30.00 in 10.0 mi SSE 15.0 mph - N/A   Overcast
10:35 AM 33.8 °F 25.8 °F 32.0 °F 93% 29.99 in 2.5 mi SSE 10.4 mph - N/A   Overcast
10:55 AM 33.8 °F 26.4 °F 32.0 °F 93% 29.98 in 1.5 mi SSE 9.2 mph - N/A   Overcast
11:15 AM 33.8 °F 25.3 °F 33.8 °F 100% 29.97 in 0.8 mi SSE 11.5 mph - N/A   Overcast
11:55 AM 33.8 °F - 33.8 °F 100% 29.93 in 1.2 mi Calm Calm - 0.04 in Rain Light Rain
12:15 PM 33.8 °F - 33.8 °F 100% 29.92 in 2.0 mi Calm Calm - N/A Rain Light Rain
12:35 PM 33.8 °F 27.7 °F 33.8 °F 100% 29.90 in 5.0 mi SSE 6.9 mph - 0.01 in   Overcast
12:55 PM 33.8 °F 27.0 °F 33.8 °F 100% 29.89 in 2.5 mi SSE 8.1 mph - 0.01 in Rain Light Rain
1:15 PM 33.8 °F 30.8 °F 33.8 °F 100% 29.87 in 4.0 mi SSE 3.5 mph - N/A   Overcast
1:35 PM 33.8 °F - 33.8 °F 100% 29.86 in 2.5 mi Calm Calm - 0.02 in Rain Light Rain
1:55 PM 35.6 °F 29.2 °F 35.6 °F 100% 29.86 in 4.0 mi SSE 8.1 mph - 0.02 in Rain Light Rain
2:15 PM 33.8 °F 28.6 °F 33.8 °F 100% 29.84 in 0.8 mi SE 5.8 mph - 0.01 in   Overcast
2:35 PM 35.6 °F - 35.6 °F 100% 29.82 in 3.0 mi Calm Calm - 0.01 in   Overcast
2:55 PM 35.6 °F 29.9 °F 35.6 °F 100% 29.81 in 1.5 mi SE 6.9 mph - 0.01 in   Overcast
3:15 PM 33.8 °F 26.4 °F 33.8 °F 100% 29.81 in 1.5 mi SSE 9.2 mph - N/A   Overcast
3:35 PM 33.8 °F 25.8 °F 33.8 °F 100% 29.80 in 0.2 mi SSE 10.4 mph - N/A Fog Fog
3:55 PM 33.8 °F 27.0 °F 33.8 °F 100% 29.80 in 0.2 mi SSE 8.1 mph - N/A Fog Fog
4:15 PM 33.8 °F 25.8 °F 33.8 °F 100% 29.79 in 0.2 mi SSE 10.4 mph - N/A Fog Fog
4:35 PM 33.8 °F 28.6 °F 33.8 °F 100% 29.79 in 0.2 mi SSE 5.8 mph - N/A   Overcast
4:55 PM 33.8 °F 26.4 °F 33.8 °F 100% 29.78 in 0.2 mi SSE 9.2 mph - N/A   Overcast
5:15 PM 33.8 °F - 33.8 °F 100% 29.78 in 0.2 mi Calm Calm - N/A Fog Fog
5:35 PM 33.8 °F - 33.8 °F 100% 29.78 in 0.2 mi Calm Calm - N/A Fog Fog
5:55 PM 33.8 °F - 33.8 °F 100% 29.76 in 0.2 mi Calm Calm - N/A Fog Fog
6:15 PM 33.8 °F - 33.8 °F 100% 29.75 in 0.2 mi Calm Calm - N/A   Overcast
6:35 PM 33.8 °F - 33.8 °F 100% 29.75 in 0.2 mi Calm Calm - N/A Fog Fog
6:55 PM 33.8 °F - - N/A% 29.75 in 0.2 mi Calm Calm - N/A Fog Fog
7:15 PM 33.8 °F - - N/A% 29.75 in 0.2 mi Calm Calm - N/A Fog Fog
7:35 PM 33.8 °F - - N/A% 29.75 in 0.2 mi Calm Calm - N/A Fog Fog
7:55 PM 33.8 °F 27.7 °F 33.8 °F 100% 29.75 in 0.2 mi South 6.9 mph - N/A Fog Fog
8:15 PM 33.8 °F 26.4 °F 33.8 °F 100% 29.73 in 0.5 mi South 9.2 mph - N/A Fog Fog
8:35 PM 33.8 °F 26.4 °F 33.8 °F 100% 29.74 in 0.8 mi South 9.2 mph - N/A   Overcast
8:55 PM 35.6 °F 28.0 °F 35.6 °F 100% 29.71 in 0.5 mi South 10.4 mph - N/A Fog Fog
9:15 PM 35.6 °F 28.6 °F 35.6 °F 100% 29.70 in 0.5 mi South 9.2 mph - N/A Fog Fog
9:35 PM 35.6 °F 28.0 °F 35.6 °F 100% 29.69 in 0.2 mi South 10.4 mph - N/A Fog Fog
9:55 PM 35.6 °F 28.6 °F 35.6 °F 100% 29.68 in 0.2 mi South 9.2 mph - N/A Fog Fog
10:15 PM 33.8 °F 25.3 °F 33.8 °F 100% 29.66 in 0.2 mi SSE 11.5 mph - N/A Fog Fog
10:35 PM 35.6 °F 28.0 °F 35.6 °F 100% 29.66 in 0.2 mi South 10.4 mph - N/A Fog Fog
10:55 PM 35.6 °F 29.2 °F 35.6 °F 100% 29.65 in 0.2 mi South 8.1 mph - N/A Fog Fog
11:15 PM 33.8 °F - 33.8 °F 100% 29.64 in 0.2 mi Calm Calm - N/A Fog Fog
11:35 PM 33.8 °F 27.7 °F 33.8 °F 100% 29.66 in 0.2 mi SW 6.9 mph - N/A Fog Fog